#timestamp,LO_Frequency,Hit 
1504774815.3,286046999.2,N
1504774835.1,286046997.4,N
1504774855.8,286046991.8,N
1504774875.7,286046994.1,N
1504774895.5,286046992.0,N
1504774915.3,286046994.5,N
1504774935.2,286046996.1,N
1504774955.9,286046994.2,N
1504774975.7,286046993.4,N
1504774995.6,286046996.3,N
1504775015.4,286046994.7,N
1504775035.2,286046994.2,N
1504775055.0,286046993.9,N
1504775056.0,286046993.9,N
1504775075.8,286046993.2,N
1504775095.6,286046991.6,N
1504775115.4,286046994.7,N
1504775135.3,286046989.0,P
1504775155.1,286046994.0,N
1504775175.9,286046993.3,N
1504775195.7,286046994.2,N
1504775215.5,286046993.3,N
1504775235.3,286046994.3,N
1504775255.2,286046993.0,P
1504775275.0,286047000.9,P
1504775275.9,286047000.9,N
1504775295.8,286047002.8,N
1504775315.6,286047000.6,N
1504775335.4,286047000.5,N
1504775355.2,286047002.6,N
1504775375.1,286047003.9,N
1504775376.0,286047003.9,N
1504775395.8,286047002.7,N
1504775415.6,286046999.7,N
1504775435.5,286047002.2,N
1504775455.3,286047001.8,N
1504775475.1,286046998.2,N
1504775495.9,286046999.0,N
1504775515.7,286046994.9,N
1504775535.5,286046997.7,N
1504775555.4,286046996.8,N
1504775575.2,286046997.6,N
1504775595.0,286046996.0,N
1504775595.9,286046996.0,N
1504775615.8,286046996.4,N
1504775635.6,286046994.5,N
1504775655.4,286046990.9,N
1504775675.3,286046990.5,N
1504775695.1,286046992.0,N
1504775696.0,286046992.0,N
1504775715.8,286046993.1,N
1504775735.7,286046991.3,N
1504775755.5,286046991.8,N
1504775775.3,286046994.8,N
1504775795.1,286046991.9,N
1504775815.9,286046992.5,N
1504775835.7,286046992.3,N
1504775855.5,286046992.8,N
1504775875.4,286046992.4,N
1504775895.2,286046994.5,N
1504775915.0,286046994.8,N
1504775915.9,286046994.8,N
1504775935.8,286046992.9,N
1504775955.6,286046991.2,N
1504775975.4,286046988.8,P
1504775995.3,286046994.6,N
1504776015.1,286046993.7,N
1504776035.8,286046995.4,N
1504776055.7,286046996.4,N
1504776075.5,286046993.7,N
1504776095.3,286046995.2,N
1504776115.2,286046992.2,P
1504776135.9,286046996.8,P
1504776155.7,286046995.2,N
1504776175.6,286046997.1,N
1504776195.4,286046997.6,N
1504776215.2,286046997.6,N
1504776235.1,286046997.9,N
1504776236.0,286046997.9,N
1504776255.8,286046993.5,P
1504776275.6,286046996.7,N
1504776295.5,286046997.4,N
1504776315.3,286046999.6,N
1504776335.1,286047000.6,N
1504776355.9,286047000.6,N
1504776375.7,286046998.5,N
1504776395.5,286047001.4,N
1504776415.4,286047005.5,N
1504776435.2,286047005.9,N
1504776455.0,286047004.0,N
1504776455.9,286047004.0,N
1504776475.7,286047000.3,N
1504776495.6,286046997.7,N
1504776515.4,286046997.9,N
1504776535.2,286046995.0,N
1504776555.1,286046995.6,N
1504776556.0,286046995.6,N
1504776575.8,286046995.6,N
1504776595.6,286046993.3,N
1504776615.5,286046993.9,N
1504776635.3,286046993.5,N
1504776655.1,286046994.7,N
1504776675.9,286046994.5,N
1504776695.7,286046994.7,N
1504776715.5,286046992.9,N
1504776735.4,286046992.9,N
1504776755.2,286046991.9,N
1504776775.0,286046996.3,N
1504776775.9,286046996.3,N
1504776795.7,286046994.2,N
1504776815.6,286046994.8,N
1504776835.4,286046990.2,N
1504776855.3,286046986.9,P
1504776875.1,286046992.8,N
1504776876.0,286046992.8,N
1504776895.8,286046993.7,N
1504776915.6,286046996.1,N
1504776935.5,286046993.4,N
1504776955.3,286046995.4,N
1504776975.1,286046992.9,N
1504776995.9,286046991.8,N
1504777015.7,286046990.8,P
1504777035.5,286046996.8,N
1504777055.4,286046997.0,N
1504777075.2,286046996.9,N
1504777095.0,286046998.5,N
1504777095.9,286046998.5,N
1504777115.8,286046999.1,N
1504777135.6,286046998.1,N
1504777155.4,286047002.0,N
1504777175.3,286047000.1,N
1504777195.1,286047002.4,N
1504777196.0,286047002.4,N
1504777215.8,286047002.7,N
1504777235.7,286047003.5,N
1504777255.5,286047005.7,N
1504777275.3,286047004.3,N
1504777295.2,286047004.1,N
1504777315.9,286047004.4,N
1504777335.7,286047004.1,N
1504777355.5,286047004.1,N
1504777375.4,286047006.0,N
1504777395.2,286047004.0,N
1504777415.0,286047004.0,N
1504777415.9,286047004.0,N
1504777435.8,286047002.4,N
1504777455.6,286047002.6,N
1504777475.4,286047000.4,N
1504777495.3,286047000.1,N
1504777515.1,286047001.0,N
1504777535.8,286047000.2,N
1504777555.7,286046996.5,N
1504777575.5,286046997.5,N
1504777595.3,286046997.0,N
1504777615.2,286046999.5,N
1504777635.9,286046996.5,N
1504777655.7,286046998.9,N
1504777675.6,286046998.5,N
1504777695.4,286046998.5,N
1504777715.2,286046997.0,N
1504777735.0,286046999.0,N
1504777736.0,286046999.0,N
1504777755.8,286046999.7,N
1504777775.6,286046999.9,N
1504777795.4,286046999.0,N
1504777815.3,286046998.9,N
1504777835.1,286046997.2,N
1504777855.8,286046995.7,N
1504777875.7,286046995.8,N
1504777895.5,286046999.5,N
1504777915.3,286046998.1,N
1504777935.2,286047001.1,N
1504777955.9,286046998.4,N
1504777975.7,286047000.8,N
1504777995.6,286046998.7,N
1504778015.4,286046999.4,N
1504778035.2,286047001.0,N
1504778055.0,286047000.4,N
1504778055.9,286047000.4,N
1504778075.8,286047000.0,N
1504778095.6,286046999.8,N
1504778115.4,286047000.0,N
1504778135.3,286047000.6,N
1504778155.1,286046998.2,N
1504778175.8,286047001.0,N
1504778195.7,286046997.2,N
1504778215.5,286046995.2,P
1504778235.3,286046998.7,N
1504778255.2,286046999.6,N
1504778275.9,286046999.4,N
1504778295.7,286046998.6,N
1504778315.6,286046998.9,N
1504778335.4,286047001.1,N
1504778355.2,286046998.3,N
1504778375.1,286046998.9,N
1504778376.0,286046998.9,N
1504778395.8,286046999.0,N
